UAL2038 KPHL-KIAH

Flight info

Callsign UAL2038
Flight time 3h 23m
Altitude 30000
Route MXE PENSY J110 FLIRT J6 HVQ Q68 LAJUG UJM Q31 DHART Q33 SWEUP ZEEKK3
Aircraft B738/M-VGDW/C

Departure

Time 2026-05-06 17:07
Airport Philadelphia International Airport (KPHL)

Arrival

Time 2026-05-06 20:30
Airport George Bush Intercontinental Airport (KIAH)
Time Latitude Longitude Altitude Speed Heading
2026-05-06 16:59 39.87625 -75.23575 44 ft 0 kts 251°
2026-05-06 17:00 39.87625 -75.23583 44 ft 2 kts 288°
2026-05-06 17:00 39.87656 -75.23579 44 ft 7 kts 29°
2026-05-06 17:00 39.87699 -75.23549 44 ft 7 kts 25°
2026-05-06 17:00 39.87746 -75.23521 44 ft 10 kts 25°
2026-05-06 17:01 39.87835 -75.23471 44 ft 12 kts 23°
2026-05-06 17:01 39.87851 -75.23446 44 ft 5 kts 108°
2026-05-06 17:01 39.87803 -75.23414 44 ft 11 kts 158°
2026-05-06 17:01 39.87720 -75.23374 44 ft 15 kts 159°
2026-05-06 17:02 39.87614 -75.23321 44 ft 18 kts 159°
2026-05-06 17:02 39.87489 -75.23262 44 ft 20 kts 161°
2026-05-06 17:02 39.87402 -75.23250 44 ft 11 kts 226°
2026-05-06 17:02 39.87366 -75.23310 44 ft 14 kts 233°
2026-05-06 17:03 39.87306 -75.23427 44 ft 17 kts 242°
2026-05-06 17:03 39.87253 -75.23515 44 ft 9 kts 173°
2026-05-06 17:03 39.87195 -75.23413 44 ft 15 kts 123°
2026-05-06 17:03 39.87137 -75.23302 44 ft 12 kts 136°
2026-05-06 17:04 39.87095 -75.23300 44 ft 8 kts 215°
2026-05-06 17:04 39.87063 -75.23353 44 ft 8 kts 234°
2026-05-06 17:04 39.87022 -75.23419 44 ft 11 kts 214°
2026-05-06 17:04 39.86972 -75.23423 44 ft 8 kts 162°
2026-05-06 17:05 39.86914 -75.23399 44 ft 6 kts 164°
2026-05-06 17:05 39.86899 -75.23418 44 ft 4 kts 257°
2026-05-06 17:05 39.86892 -75.23456 44 ft 3 kts 256°
2026-05-06 17:05 39.86889 -75.23473 44 ft 0 kts 256°
2026-05-06 17:06 39.86888 -75.23473 44 ft 0 kts 256°
2026-05-06 17:06 39.86877 -75.23533 44 ft 31 kts 255°
2026-05-06 17:06 39.86763 -75.24099 44 ft 96 kts 255°
2026-05-06 17:06 39.86550 -75.25180 45 ft 151 kts 256°
2026-05-06 17:07 39.86274 -75.26658 395 ft 172 kts 254°
2026-05-06 17:07 39.85994 -75.28175 1120 ft 177 kts 255°
2026-05-06 17:07 39.85728 -75.29703 1825 ft 169 kts 253°
2026-05-06 17:07 39.85498 -75.31210 2303 ft 171 kts 254°
2026-05-06 17:08 39.85279 -75.32763 2682 ft 178 kts 254°
2026-05-06 17:08 39.85059 -75.34385 3059 ft 188 kts 254°
2026-05-06 17:08 39.84823 -75.36130 3448 ft 203 kts 254°
2026-05-06 17:08 39.84552 -75.38021 3776 ft 222 kts 254°
2026-05-06 17:09 39.84247 -75.40068 4273 ft 237 kts 254°
2026-05-06 17:09 39.83918 -75.42168 4989 ft 242 kts 255°
2026-05-06 17:09 39.83798 -75.44371 5814 ft 248 kts 269°
2026-05-06 17:09 39.83977 -75.46600 6685 ft 248 kts 270°
2026-05-06 17:10 39.84153 -75.48867 7389 ft 254 kts 270°
2026-05-06 17:10 39.84329 -75.51176 8108 ft 258 kts 270°
2026-05-06 17:10 39.84505 -75.53520 8868 ft 260 kts 270°
2026-05-06 17:10 39.84683 -75.55885 9585 ft 264 kts 270°
2026-05-06 17:11 39.84858 -75.58263 10333 ft 265 kts 270°
2026-05-06 17:11 39.85040 -75.60665 10992 ft 271 kts 270°
2026-05-06 17:11 39.85227 -75.63136 11391 ft 285 kts 269°
2026-05-06 17:11 39.85422 -75.65768 11750 ft 299 kts 269°
2026-05-06 17:12 39.85621 -75.68529 12153 ft 311 kts 269°
2026-05-06 17:12 39.85831 -75.71365 12746 ft 316 kts 270°
2026-05-06 17:12 39.86035 -75.74232 13373 ft 319 kts 270°
2026-05-06 17:12 39.86240 -75.77079 14058 ft 321 kts 269°
2026-05-06 17:13 39.86246 -75.79976 14689 ft 320 kts 262°
2026-05-06 17:13 39.85914 -75.82843 15317 ft 321 kts 254°
2026-05-06 17:13 39.85330 -75.85661 15888 ft 324 kts 252°
2026-05-06 17:13 39.84695 -75.88497 16474 ft 327 kts 252°
2026-05-06 17:14 39.84048 -75.91350 17045 ft 330 kts 252°
2026-05-06 17:14 39.83394 -75.94230 17594 ft 333 kts 253°
2026-05-06 17:14 39.82730 -75.97138 18127 ft 337 kts 253°
2026-05-06 17:14 39.82057 -76.00095 18381 ft 348 kts 253°
2026-05-06 17:15 39.81354 -76.03179 18582 ft 360 kts 253°
2026-05-06 17:15 39.80690 -76.06087 18896 ft 365 kts 253°
2026-05-06 17:15 39.79951 -76.09313 19383 ft 368 kts 253°
2026-05-06 17:15 39.79218 -76.12509 19841 ft 370 kts 253°
2026-05-06 17:16 39.78489 -76.15684 20307 ft 373 kts 253°
2026-05-06 17:16 39.77743 -76.18927 20769 ft 375 kts 253°
2026-05-06 17:16 39.76994 -76.22182 21206 ft 377 kts 253°
2026-05-06 17:16 39.76241 -76.25447 21659 ft 378 kts 253°
2026-05-06 17:17 39.75475 -76.28781 22087 ft 380 kts 253°
2026-05-06 17:17 39.74739 -76.32050 22454 ft 383 kts 253°
2026-05-06 17:17 39.73987 -76.35371 22856 ft 385 kts 253°
2026-05-06 17:17 39.73231 -76.38695 23441 ft 380 kts 253°
2026-05-06 17:18 39.72483 -76.41966 24046 ft 377 kts 252°
2026-05-06 17:18 39.71733 -76.45238 24497 ft 377 kts 253°
2026-05-06 17:18 39.70981 -76.48510 24905 ft 378 kts 253°
2026-05-06 17:18 39.70227 -76.51783 25292 ft 379 kts 253°
2026-05-06 17:19 39.69468 -76.55065 25687 ft 380 kts 253°
2026-05-06 17:19 39.68708 -76.58352 26093 ft 380 kts 253°
2026-05-06 17:19 39.67948 -76.61629 26663 ft 375 kts 254°
2026-05-06 17:19 39.67200 -76.64846 27279 ft 370 kts 254°
2026-05-06 17:20 39.66461 -76.67982 27669 ft 370 kts 254°
2026-05-06 17:20 39.65711 -76.71198 27959 ft 373 kts 254°
2026-05-06 17:20 39.64958 -76.74427 28273 ft 374 kts 255°
2026-05-06 17:20 39.64203 -76.77658 28624 ft 374 kts 255°
2026-05-06 17:21 39.63444 -76.80899 29013 ft 373 kts 255°
2026-05-06 17:21 39.62693 -76.84108 29475 ft 370 kts 255°
2026-05-06 17:21 39.61931 -76.87296 29788 ft 371 kts 254°
2026-05-06 17:22 39.60376 -76.93706 29852 ft 375 kts 255°
2026-05-06 17:22 39.58840 -77.00175 29862 ft 375 kts 255°
2026-05-06 17:23 39.57319 -77.06600 29858 ft 369 kts 255°
2026-05-06 17:23 39.55803 -77.12968 29860 ft 372 kts 255°
2026-05-06 17:24 39.54273 -77.19351 29863 ft 369 kts 255°
2026-05-06 17:24 39.52751 -77.25712 29865 ft 371 kts 255°
2026-05-06 17:25 39.51215 -77.32103 29868 ft 370 kts 255°
2026-05-06 17:25 39.49741 -77.38380 29867 ft 368 kts 255°
2026-05-06 17:26 39.48228 -77.44755 29867 ft 372 kts 255°
2026-05-06 17:26 39.46720 -77.51150 29865 ft 369 kts 255°
2026-05-06 17:27 39.45202 -77.57506 29863 ft 370 kts 255°
2026-05-06 17:27 39.43671 -77.63825 29854 ft 366 kts 255°
2026-05-06 17:28 39.42134 -77.70167 29849 ft 372 kts 255°
2026-05-06 17:28 39.40585 -77.76514 29837 ft 372 kts 254°
2026-05-06 17:29 39.39016 -77.82879 29835 ft 373 kts 253°
2026-05-06 17:29 39.36816 -77.89057 29825 ft 382 kts 247°
2026-05-06 17:30 39.34418 -77.95127 29821 ft 374 kts 247°
2026-05-06 17:30 39.32030 -78.01147 29823 ft 377 kts 246°
2026-05-06 17:31 39.29651 -78.07129 29826 ft 374 kts 246°
2026-05-06 17:31 39.27259 -78.13131 29834 ft 377 kts 246°
2026-05-06 17:32 39.24842 -78.19140 29837 ft 375 kts 247°
2026-05-06 17:32 39.22453 -78.25113 29839 ft 375 kts 247°
2026-05-06 17:33 39.20067 -78.31125 29840 ft 376 kts 247°
2026-05-06 17:33 39.17698 -78.37057 29841 ft 372 kts 246°
2026-05-06 17:34 39.15321 -78.42979 29844 ft 372 kts 246°
2026-05-06 17:34 39.12934 -78.48909 29846 ft 373 kts 246°
2026-05-06 17:35 39.10578 -78.54804 29847 ft 372 kts 246°
2026-05-06 17:35 39.08191 -78.60715 29846 ft 372 kts 246°
2026-05-06 17:36 39.04586 -78.69580 29843 ft 372 kts 246°
2026-05-06 17:36 39.02177 -78.75486 29839 ft 373 kts 246°
2026-05-06 17:37 38.99767 -78.81382 29838 ft 373 kts 246°
2026-05-06 17:37 38.97361 -78.87285 29834 ft 373 kts 246°
2026-05-06 17:38 38.94959 -78.93178 29827 ft 372 kts 246°
2026-05-06 17:38 38.92538 -78.99080 29822 ft 373 kts 246°
2026-05-06 17:39 38.90120 -79.04952 29819 ft 373 kts 246°
2026-05-06 17:39 38.87687 -79.10846 29817 ft 373 kts 246°
2026-05-06 17:40 38.85277 -79.16744 29818 ft 372 kts 248°
2026-05-06 17:40 38.83559 -79.22945 29827 ft 367 kts 257°
2026-05-06 17:41 38.82346 -79.29262 29839 ft 367 kts 258°
2026-05-06 17:41 38.81176 -79.35629 29849 ft 367 kts 258°
2026-05-06 17:42 38.80009 -79.41996 29859 ft 366 kts 258°
2026-05-06 17:42 38.78844 -79.48355 29870 ft 366 kts 258°
2026-05-06 17:43 38.77680 -79.54704 29881 ft 366 kts 258°
2026-05-06 17:43 38.76513 -79.61057 29891 ft 366 kts 258°
2026-05-06 17:44 38.75375 -79.67377 29899 ft 366 kts 258°
2026-05-06 17:44 38.74227 -79.73728 29903 ft 366 kts 258°
2026-05-06 17:45 38.73080 -79.80087 29905 ft 366 kts 258°
2026-05-06 17:45 38.71926 -79.86437 29907 ft 366 kts 258°
2026-05-06 17:46 38.70754 -79.92783 29911 ft 366 kts 258°
2026-05-06 17:46 38.69566 -79.99157 29911 ft 366 kts 258°
2026-05-06 17:47 38.68580 -80.04422 29911 ft 365 kts 258°
2026-05-06 17:47 38.67395 -80.10735 29915 ft 365 kts 258°
2026-05-06 17:48 38.66015 -80.18076 29917 ft 365 kts 258°
2026-05-06 17:48 38.65013 -80.23361 29917 ft 365 kts 258°
2026-05-06 17:49 38.63813 -80.29671 29915 ft 365 kts 258°
2026-05-06 17:49 38.62609 -80.35974 29910 ft 365 kts 258°
2026-05-06 17:50 38.61411 -80.42229 29907 ft 365 kts 258°
2026-05-06 17:50 38.60203 -80.48518 29904 ft 364 kts 257°
2026-05-06 17:51 38.58989 -80.54811 29910 ft 364 kts 257°
2026-05-06 17:51 38.57778 -80.61094 29911 ft 363 kts 258°
2026-05-06 17:52 38.56594 -80.67373 29912 ft 363 kts 257°
2026-05-06 17:52 38.55397 -80.73650 29913 ft 363 kts 257°
2026-05-06 17:53 38.54192 -80.79927 29914 ft 363 kts 257°
2026-05-06 17:53 38.52981 -80.86192 29915 ft 363 kts 257°
2026-05-06 17:54 38.51778 -80.92394 29918 ft 362 kts 257°
2026-05-06 17:54 38.50561 -80.98638 29920 ft 362 kts 257°
2026-05-06 17:55 38.49339 -81.04882 29922 ft 362 kts 257°
2026-05-06 17:55 38.48114 -81.11127 29924 ft 362 kts 257°
2026-05-06 17:56 38.46887 -81.17361 29928 ft 362 kts 257°
2026-05-06 17:56 38.45657 -81.23590 29930 ft 361 kts 257°
2026-05-06 17:57 38.44433 -81.29773 29930 ft 361 kts 257°
2026-05-06 17:57 38.43199 -81.35983 29931 ft 361 kts 257°
2026-05-06 17:58 38.41980 -81.42209 29930 ft 361 kts 257°
2026-05-06 17:58 38.40746 -81.48427 29930 ft 361 kts 256°
2026-05-06 17:59 38.39506 -81.54601 29930 ft 361 kts 256°
2026-05-06 17:59 38.38253 -81.60802 29930 ft 361 kts 256°
2026-05-06 18:00 38.36995 -81.67005 29931 ft 361 kts 256°
2026-05-06 18:00 38.35735 -81.73204 29932 ft 362 kts 256°
2026-05-06 18:01 38.34358 -81.79432 29935 ft 363 kts 253°
2026-05-06 18:01 38.32632 -81.85520 29939 ft 369 kts 252°
2026-05-06 18:02 38.30867 -81.91692 29942 ft 375 kts 252°
2026-05-06 18:02 38.29114 -81.97949 29946 ft 374 kts 252°
2026-05-06 18:03 38.27368 -82.04191 29949 ft 374 kts 252°
2026-05-06 18:03 38.25607 -82.10427 29953 ft 374 kts 252°
2026-05-06 18:04 38.23841 -82.16663 29955 ft 374 kts 252°
2026-05-06 18:04 38.22086 -82.22839 29957 ft 373 kts 252°
2026-05-06 18:05 38.20314 -82.29062 29958 ft 373 kts 252°
2026-05-06 18:05 38.18545 -82.35263 29959 ft 373 kts 252°
2026-05-06 18:06 38.16767 -82.41458 29959 ft 373 kts 252°
2026-05-06 18:06 38.14985 -82.47653 29960 ft 373 kts 252°
2026-05-06 18:07 38.13201 -82.53835 29960 ft 373 kts 252°
2026-05-06 18:07 38.11413 -82.60018 29965 ft 373 kts 251°
2026-05-06 18:08 38.09626 -82.66183 29967 ft 371 kts 251°
2026-05-06 18:08 38.07836 -82.72342 29968 ft 372 kts 251°
2026-05-06 18:09 38.06070 -82.78508 29966 ft 371 kts 252°
2026-05-06 18:09 38.04311 -82.84631 29966 ft 371 kts 252°
2026-05-06 18:10 38.02531 -82.90788 29971 ft 371 kts 252°
2026-05-06 18:10 38.00747 -82.96936 29972 ft 371 kts 251°
2026-05-06 18:11 37.98952 -83.03099 29972 ft 374 kts 251°
2026-05-06 18:11 37.97132 -83.09325 29971 ft 379 kts 251°
2026-05-06 18:12 37.95296 -83.15590 29974 ft 378 kts 251°
2026-05-06 18:12 37.93458 -83.21846 29978 ft 378 kts 251°
2026-05-06 18:13 37.91622 -83.28083 29978 ft 378 kts 251°
2026-05-06 18:13 37.89797 -83.34266 29978 ft 377 kts 251°
2026-05-06 18:14 37.87957 -83.40485 29979 ft 377 kts 251°
2026-05-06 18:14 37.86114 -83.46702 29976 ft 377 kts 251°
2026-05-06 18:15 37.84269 -83.52908 29980 ft 376 kts 251°
2026-05-06 18:15 37.82425 -83.59100 29982 ft 376 kts 251°
2026-05-06 18:16 37.80581 -83.65280 29983 ft 376 kts 251°
2026-05-06 18:16 37.78747 -83.71411 29985 ft 374 kts 251°
2026-05-06 18:17 37.76899 -83.77578 29989 ft 375 kts 251°
2026-05-06 18:17 37.75069 -83.83744 29990 ft 375 kts 251°
2026-05-06 18:18 37.73218 -83.89906 29991 ft 375 kts 251°
2026-05-06 18:18 37.71368 -83.96020 29991 ft 375 kts 251°
2026-05-06 18:19 37.69501 -84.02171 29991 ft 374 kts 251°
2026-05-06 18:19 37.67637 -84.08296 29993 ft 373 kts 251°
2026-05-06 18:20 37.65769 -84.14429 29998 ft 374 kts 251°
2026-05-06 18:20 37.63890 -84.20563 29999 ft 375 kts 251°
2026-05-06 18:21 37.62028 -84.26612 29999 ft 369 kts 251°
2026-05-06 18:21 37.60180 -84.32618 30000 ft 367 kts 251°
2026-05-06 18:22 37.58362 -84.38614 30001 ft 366 kts 251°
2026-05-06 18:22 37.56523 -84.44622 30002 ft 368 kts 251°
2026-05-06 18:23 37.54665 -84.50639 30003 ft 368 kts 251°
2026-05-06 18:23 37.52800 -84.56650 30005 ft 368 kts 251°
2026-05-06 18:24 37.50934 -84.62651 30006 ft 368 kts 251°
2026-05-06 18:24 37.49066 -84.68644 30009 ft 368 kts 251°
2026-05-06 18:25 37.47223 -84.74612 30009 ft 368 kts 251°
2026-05-06 18:25 37.45369 -84.80618 30010 ft 367 kts 251°
2026-05-06 18:26 37.43509 -84.86602 30011 ft 368 kts 251°
2026-05-06 18:26 37.41639 -84.92599 30015 ft 368 kts 251°
2026-05-06 18:27 37.39766 -84.98593 30019 ft 368 kts 251°
2026-05-06 18:27 37.37890 -85.04573 30025 ft 368 kts 251°
2026-05-06 18:28 37.36002 -85.10544 30033 ft 367 kts 251°
2026-05-06 18:28 37.34123 -85.16471 30041 ft 367 kts 251°
2026-05-06 18:29 37.32235 -85.22416 30047 ft 366 kts 250°
2026-05-06 18:29 37.30340 -85.28367 30049 ft 366 kts 250°
2026-05-06 18:30 37.28764 -85.33307 30049 ft 366 kts 250°
2026-05-06 18:30 37.26868 -85.39239 30047 ft 365 kts 250°
2026-05-06 18:31 37.25003 -85.45125 30036 ft 355 kts 251°
2026-05-06 18:31 37.23164 -85.50944 30032 ft 362 kts 251°
2026-05-06 18:32 37.21295 -85.56822 30025 ft 361 kts 250°
2026-05-06 18:32 37.19429 -85.62665 30021 ft 361 kts 250°
2026-05-06 18:33 37.17559 -85.68501 30016 ft 361 kts 250°
2026-05-06 18:33 37.15685 -85.74336 30013 ft 361 kts 250°
2026-05-06 18:34 37.13541 -85.79989 30012 ft 364 kts 242°
2026-05-06 18:34 37.10811 -85.85355 30010 ft 365 kts 242°
2026-05-06 18:35 37.08045 -85.90712 30010 ft 366 kts 242°
2026-05-06 18:35 37.05273 -85.96072 30010 ft 366 kts 242°
2026-05-06 18:36 37.02485 -86.01459 30008 ft 366 kts 242°
2026-05-06 18:36 36.99742 -86.06749 30010 ft 364 kts 241°
2026-05-06 18:37 36.96986 -86.12059 30010 ft 364 kts 241°
2026-05-06 18:37 36.94231 -86.17357 30009 ft 363 kts 241°
2026-05-06 18:38 36.91478 -86.22661 30009 ft 364 kts 241°
2026-05-06 18:38 36.88729 -86.27991 30009 ft 364 kts 241°
2026-05-06 18:39 36.85975 -86.33311 30010 ft 364 kts 241°
2026-05-06 18:40 36.81851 -86.41252 30010 ft 365 kts 241°
2026-05-06 18:40 36.79087 -86.46558 30011 ft 365 kts 241°
2026-05-06 18:41 36.76317 -86.51866 30011 ft 365 kts 241°
2026-05-06 18:41 36.73546 -86.57163 30015 ft 365 kts 241°
2026-05-06 18:42 36.70770 -86.62462 30019 ft 365 kts 241°
2026-05-06 18:42 36.67995 -86.67751 30019 ft 364 kts 241°
2026-05-06 18:43 36.65218 -86.73031 30020 ft 364 kts 240°
2026-05-06 18:43 36.62441 -86.78305 30021 ft 364 kts 240°
2026-05-06 18:44 36.59659 -86.83581 30091 ft 367 kts 240°
2026-05-06 18:44 36.58258 -86.86235 30501 ft 364 kts 241°
2026-05-06 18:44 36.56880 -86.88841 31118 ft 356 kts 241°
2026-05-06 18:44 36.55528 -86.91395 31704 ft 350 kts 242°
2026-05-06 18:45 36.54208 -86.93891 31957 ft 350 kts 242°
2026-05-06 18:45 36.51503 -86.98989 32008 ft 350 kts 242°
2026-05-06 18:46 36.48828 -87.04033 32012 ft 352 kts 242°
2026-05-06 18:46 36.46121 -87.09122 32014 ft 355 kts 242°
2026-05-06 18:47 36.43408 -87.14221 32014 ft 352 kts 241°
2026-05-06 18:47 36.40715 -87.19269 32016 ft 350 kts 242°
2026-05-06 18:48 36.38004 -87.24336 32012 ft 353 kts 241°
2026-05-06 18:48 36.35296 -87.29394 32010 ft 351 kts 241°
2026-05-06 18:49 36.32606 -87.34437 32008 ft 353 kts 242°
2026-05-06 18:49 36.29886 -87.39520 32006 ft 350 kts 241°
2026-05-06 18:50 36.27192 -87.44520 32009 ft 351 kts 241°
2026-05-06 18:50 36.24481 -87.49560 32006 ft 351 kts 242°
2026-05-06 18:51 36.21778 -87.54587 32005 ft 353 kts 241°
2026-05-06 18:51 36.19040 -87.59665 32004 ft 354 kts 241°
2026-05-06 18:52 36.16313 -87.64703 32007 ft 352 kts 241°
2026-05-06 18:52 36.13598 -87.69728 32010 ft 351 kts 241°
2026-05-06 18:53 36.10858 -87.74766 32012 ft 355 kts 241°
2026-05-06 18:53 36.08103 -87.79836 32016 ft 354 kts 241°
2026-05-06 18:54 36.05356 -87.84902 32013 ft 356 kts 241°
2026-05-06 18:54 36.02614 -87.89954 32014 ft 355 kts 241°
2026-05-06 18:55 35.99864 -87.95002 32013 ft 351 kts 241°
2026-05-06 18:55 35.97137 -87.99996 32020 ft 351 kts 241°
2026-05-06 18:56 35.94404 -88.04994 32023 ft 351 kts 241°
2026-05-06 18:56 35.91679 -88.09969 32028 ft 351 kts 241°
2026-05-06 18:57 35.88941 -88.14943 32029 ft 351 kts 241°
2026-05-06 18:57 35.86207 -88.19938 32032 ft 353 kts 240°
2026-05-06 18:58 35.83437 -88.24988 32032 ft 357 kts 240°
2026-05-06 18:58 35.80655 -88.30053 32029 ft 352 kts 241°
2026-05-06 18:59 35.77907 -88.35028 32029 ft 352 kts 240°
2026-05-06 18:59 35.75139 -88.40050 32038 ft 354 kts 241°
2026-05-06 19:00 35.72376 -88.45039 32041 ft 355 kts 240°
2026-05-06 19:00 35.69602 -88.50054 32035 ft 355 kts 240°
2026-05-06 19:01 35.66808 -88.55087 32040 ft 358 kts 240°
2026-05-06 19:01 35.63991 -88.60156 32043 ft 358 kts 240°
2026-05-06 19:02 35.61180 -88.65210 32041 ft 358 kts 240°
2026-05-06 19:02 35.58391 -88.70229 32044 ft 353 kts 240°
2026-05-06 19:03 35.55639 -88.75171 32044 ft 352 kts 240°
2026-05-06 19:03 35.52869 -88.80132 32045 ft 352 kts 240°
2026-05-06 19:04 35.50093 -88.85098 32045 ft 352 kts 240°
2026-05-06 19:04 35.47309 -88.90070 32045 ft 354 kts 240°
2026-05-06 19:05 35.44523 -88.95038 32043 ft 353 kts 240°
2026-05-06 19:05 35.41738 -88.99995 32040 ft 353 kts 240°
2026-05-06 19:06 35.38977 -89.04904 32037 ft 353 kts 240°
2026-05-06 19:06 35.36186 -89.09859 32036 ft 353 kts 240°
2026-05-06 19:07 35.33390 -89.14813 32035 ft 353 kts 240°
2026-05-06 19:07 35.30597 -89.19757 32034 ft 353 kts 240°
2026-05-06 19:08 35.27796 -89.24710 32033 ft 353 kts 240°
2026-05-06 19:08 35.24995 -89.29651 32032 ft 353 kts 240°
2026-05-06 19:09 35.22212 -89.34558 32031 ft 353 kts 240°
2026-05-06 19:09 35.19410 -89.39491 32030 ft 353 kts 240°
2026-05-06 19:10 35.16608 -89.44416 32031 ft 353 kts 240°
2026-05-06 19:10 35.13796 -89.49347 32033 ft 353 kts 240°
2026-05-06 19:11 35.10989 -89.54270 32036 ft 354 kts 240°
2026-05-06 19:11 35.08170 -89.59204 32041 ft 354 kts 239°
2026-05-06 19:12 35.05346 -89.64143 32045 ft 354 kts 239°
2026-05-06 19:12 35.02525 -89.69066 32048 ft 354 kts 239°
2026-05-06 19:13 35.00174 -89.73157 32050 ft 355 kts 239°
2026-05-06 19:13 34.96881 -89.78890 32050 ft 355 kts 239°
2026-05-06 19:14 34.94518 -89.83000 32050 ft 356 kts 239°
2026-05-06 19:14 34.91667 -89.87950 32050 ft 356 kts 239°
2026-05-06 19:15 34.88818 -89.92891 32050 ft 356 kts 239°
2026-05-06 19:15 34.85959 -89.97841 32050 ft 357 kts 239°
2026-05-06 19:16 34.83095 -90.02793 32052 ft 356 kts 239°
2026-05-06 19:16 34.80246 -90.07712 32052 ft 355 kts 239°
2026-05-06 19:17 34.77393 -90.12627 32051 ft 355 kts 239°
2026-05-06 19:17 34.74533 -90.17551 32051 ft 357 kts 239°
2026-05-06 19:18 34.71688 -90.22442 32051 ft 356 kts 239°
2026-05-06 19:18 34.68819 -90.27367 32050 ft 357 kts 239°
2026-05-06 19:19 34.65943 -90.32297 32050 ft 358 kts 239°
2026-05-06 19:19 34.63065 -90.37225 32050 ft 357 kts 239°
2026-05-06 19:20 34.60187 -90.42146 32050 ft 357 kts 239°
2026-05-06 19:20 34.57305 -90.47065 32050 ft 357 kts 239°
2026-05-06 19:21 34.54437 -90.51954 32053 ft 358 kts 238°
2026-05-06 19:21 34.51541 -90.56885 32065 ft 358 kts 238°
2026-05-06 19:22 34.48648 -90.61800 32066 ft 357 kts 238°
2026-05-06 19:22 34.45757 -90.66709 32063 ft 357 kts 238°
2026-05-06 19:23 34.42866 -90.71611 32062 ft 357 kts 238°
2026-05-06 19:23 34.39972 -90.76510 32061 ft 357 kts 238°
2026-05-06 19:24 34.37076 -90.81406 32064 ft 358 kts 238°
2026-05-06 19:24 34.34176 -90.86301 32064 ft 358 kts 238°
2026-05-06 19:25 34.31278 -90.91188 32064 ft 357 kts 238°
2026-05-06 19:25 34.28390 -90.96047 32057 ft 357 kts 238°
2026-05-06 19:26 34.25486 -91.00931 32054 ft 358 kts 238°
2026-05-06 19:26 34.22577 -91.05812 32054 ft 357 kts 238°
2026-05-06 19:27 34.19671 -91.10685 32054 ft 357 kts 238°
2026-05-06 19:27 34.16761 -91.15558 32052 ft 358 kts 238°
2026-05-06 19:28 34.13842 -91.20439 32050 ft 358 kts 238°
2026-05-06 19:28 34.10940 -91.25285 32051 ft 358 kts 238°
2026-05-06 19:29 34.08016 -91.30159 32052 ft 358 kts 238°
2026-05-06 19:29 34.05091 -91.35028 32052 ft 358 kts 238°
2026-05-06 19:30 34.02163 -91.39895 32059 ft 359 kts 238°
2026-05-06 19:30 33.99223 -91.44774 32061 ft 360 kts 238°
2026-05-06 19:31 33.96262 -91.49684 32062 ft 363 kts 238°
2026-05-06 19:31 33.91809 -91.57052 32063 ft 362 kts 238°
2026-05-06 19:32 33.88858 -91.61925 32066 ft 362 kts 238°
2026-05-06 19:32 33.85887 -91.66826 32065 ft 362 kts 238°
2026-05-06 19:33 33.82921 -91.71712 32064 ft 361 kts 237°
2026-05-06 19:33 33.79957 -91.76585 32063 ft 361 kts 237°
2026-05-06 19:34 33.76987 -91.81462 32062 ft 361 kts 237°
2026-05-06 19:34 33.74020 -91.86324 32062 ft 361 kts 237°
2026-05-06 19:35 33.71045 -91.91194 32062 ft 361 kts 237°
2026-05-06 19:35 33.68070 -91.96055 32062 ft 361 kts 237°
2026-05-06 19:36 33.65094 -92.00908 32061 ft 362 kts 237°
2026-05-06 19:36 33.62108 -92.05771 32059 ft 361 kts 237°
2026-05-06 19:37 33.59140 -92.10594 32049 ft 361 kts 237°
2026-05-06 19:37 33.56672 -92.14679 32044 ft 361 kts 238°
2026-05-06 19:38 33.53228 -92.20320 32039 ft 361 kts 237°
2026-05-06 19:38 33.50232 -92.25176 32037 ft 361 kts 237°
2026-05-06 19:39 33.47230 -92.30014 32033 ft 362 kts 237°
2026-05-06 19:39 33.44221 -92.34844 32031 ft 362 kts 237°
2026-05-06 19:40 33.40996 -92.39439 32033 ft 372 kts 223°
2026-05-06 19:40 33.38674 -92.40949 32034 ft 391 kts 208°
2026-05-06 19:40 33.36012 -92.41828 32019 ft 399 kts 205°
2026-05-06 19:41 33.30576 -92.43331 32026 ft 404 kts 201°
2026-05-06 19:41 33.25014 -92.44492 32029 ft 406 kts 200°
2026-05-06 19:42 33.22224 -92.45041 32170 ft 409 kts 200°
2026-05-06 19:42 33.19408 -92.45585 32525 ft 408 kts 200°
2026-05-06 19:42 33.16611 -92.46114 32984 ft 404 kts 200°
2026-05-06 19:42 33.13839 -92.46635 33371 ft 402 kts 200°
2026-05-06 19:43 33.11074 -92.47149 33717 ft 401 kts 200°
2026-05-06 19:43 33.08316 -92.47659 33990 ft 401 kts 200°
2026-05-06 19:43 33.02801 -92.48676 34006 ft 402 kts 200°
2026-05-06 19:44 32.97273 -92.49692 34006 ft 401 kts 200°
2026-05-06 19:44 32.91741 -92.50705 33999 ft 403 kts 200°
2026-05-06 19:45 32.86189 -92.51716 33994 ft 403 kts 200°
2026-05-06 19:45 32.80629 -92.52727 33989 ft 404 kts 200°
2026-05-06 19:46 32.75073 -92.53735 33983 ft 404 kts 200°
2026-05-06 19:46 32.69510 -92.54740 33979 ft 405 kts 200°
2026-05-06 19:47 32.63938 -92.55747 33975 ft 405 kts 200°
2026-05-06 19:47 32.58364 -92.56749 33972 ft 405 kts 200°
2026-05-06 19:48 32.52772 -92.57757 33970 ft 407 kts 200°
2026-05-06 19:48 32.47184 -92.58759 33970 ft 407 kts 200°
2026-05-06 19:49 32.41582 -92.59769 33969 ft 407 kts 200°
2026-05-06 19:49 32.35974 -92.60778 33967 ft 407 kts 200°
2026-05-06 19:50 32.30374 -92.61787 33964 ft 407 kts 200°
2026-05-06 19:50 32.24793 -92.62794 33960 ft 408 kts 199°
2026-05-06 19:51 32.19177 -92.63804 33956 ft 408 kts 199°
2026-05-06 19:51 32.13564 -92.64811 33940 ft 408 kts 199°
2026-05-06 19:52 32.07951 -92.65816 33929 ft 408 kts 199°
2026-05-06 19:52 32.02367 -92.66814 33922 ft 408 kts 200°
2026-05-06 19:53 31.99677 -92.67637 33915 ft 390 kts 212°
2026-05-06 19:53 31.97359 -92.69157 33918 ft 376 kts 225°
2026-05-06 19:53 31.93503 -92.73275 33914 ft 374 kts 231°
2026-05-06 19:54 31.89894 -92.77670 33909 ft 372 kts 232°
2026-05-06 19:54 31.86351 -92.82113 33905 ft 372 kts 232°
2026-05-06 19:55 31.82828 -92.86583 33901 ft 372 kts 232°
2026-05-06 19:55 31.79343 -92.91033 33897 ft 372 kts 232°
2026-05-06 19:56 31.75847 -92.95512 33894 ft 371 kts 232°
2026-05-06 19:56 31.72954 -92.99237 33892 ft 371 kts 233°
2026-05-06 19:57 31.69476 -93.03733 33891 ft 371 kts 233°
2026-05-06 19:57 31.65998 -93.08223 33890 ft 371 kts 233°
2026-05-06 19:58 31.62518 -93.12706 33892 ft 371 kts 232°
2026-05-06 19:58 31.59032 -93.17191 33890 ft 371 kts 232°
2026-05-06 19:59 31.55572 -93.21636 33891 ft 371 kts 232°
2026-05-06 19:59 31.52075 -93.26123 33892 ft 372 kts 232°
2026-05-06 20:00 31.48577 -93.30606 33891 ft 372 kts 232°
2026-05-06 20:00 31.45082 -93.35080 33890 ft 372 kts 232°
2026-05-06 20:01 31.41613 -93.39516 33890 ft 372 kts 232°
2026-05-06 20:01 31.38111 -93.43987 33892 ft 372 kts 232°
2026-05-06 20:02 31.34609 -93.48453 33744 ft 371 kts 232°
2026-05-06 20:02 31.32887 -93.50649 33445 ft 362 kts 232°
2026-05-06 20:02 31.31198 -93.52800 33004 ft 357 kts 232°
2026-05-06 20:03 31.29528 -93.54928 32549 ft 354 kts 232°
2026-05-06 20:03 31.27888 -93.57014 32102 ft 350 kts 232°
2026-05-06 20:03 31.26246 -93.59103 31655 ft 347 kts 232°
2026-05-06 20:03 31.24621 -93.61168 31215 ft 344 kts 232°
2026-05-06 20:04 31.23004 -93.63222 30778 ft 341 kts 232°
2026-05-06 20:04 31.21404 -93.65253 30349 ft 338 kts 232°
2026-05-06 20:04 31.19815 -93.67269 29925 ft 336 kts 232°
2026-05-06 20:04 31.18244 -93.69271 29510 ft 333 kts 232°
2026-05-06 20:05 31.16684 -93.71260 29094 ft 330 kts 231°
2026-05-06 20:05 31.15134 -93.73230 28682 ft 328 kts 231°
2026-05-06 20:05 31.13590 -93.75187 28271 ft 326 kts 231°
2026-05-06 20:05 31.12054 -93.77132 27862 ft 324 kts 231°
2026-05-06 20:06 31.10528 -93.79061 27457 ft 323 kts 231°
2026-05-06 20:06 31.09005 -93.80985 27051 ft 321 kts 231°
2026-05-06 20:06 31.07491 -93.82896 26648 ft 320 kts 231°
2026-05-06 20:06 31.05997 -93.84780 26250 ft 319 kts 231°
2026-05-06 20:07 31.04495 -93.86674 25852 ft 318 kts 230°
2026-05-06 20:07 31.02995 -93.88565 25452 ft 317 kts 230°
2026-05-06 20:07 31.01498 -93.90449 25050 ft 316 kts 230°
2026-05-06 20:07 31.00002 -93.92332 24643 ft 316 kts 230°
2026-05-06 20:08 30.98511 -93.94209 24238 ft 316 kts 230°
2026-05-06 20:08 30.97026 -93.96083 23838 ft 314 kts 230°
2026-05-06 20:08 30.95538 -93.97959 23425 ft 317 kts 230°
2026-05-06 20:08 30.94030 -93.99860 23007 ft 321 kts 230°
2026-05-06 20:09 30.92506 -94.01776 22586 ft 322 kts 230°
2026-05-06 20:09 30.90986 -94.03686 22166 ft 321 kts 230°
2026-05-06 20:09 30.89471 -94.05586 21749 ft 318 kts 230°
2026-05-06 20:09 30.87969 -94.07468 21336 ft 317 kts 229°
2026-05-06 20:10 30.86474 -94.09341 20925 ft 315 kts 229°
2026-05-06 20:10 30.84984 -94.11205 20516 ft 313 kts 229°
2026-05-06 20:10 30.83503 -94.13061 20108 ft 312 kts 229°
2026-05-06 20:10 30.82044 -94.14885 19707 ft 311 kts 229°
2026-05-06 20:11 30.80573 -94.16726 19303 ft 310 kts 229°
2026-05-06 20:11 30.79107 -94.18558 18901 ft 309 kts 229°
2026-05-06 20:11 30.77646 -94.20382 18500 ft 308 kts 229°
2026-05-06 20:11 30.76189 -94.22207 18111 ft 308 kts 229°
2026-05-06 20:12 30.74738 -94.24025 17793 ft 304 kts 229°
2026-05-06 20:12 30.73303 -94.25825 17407 ft 303 kts 229°
2026-05-06 20:12 30.71874 -94.27616 16997 ft 302 kts 229°
2026-05-06 20:12 30.70438 -94.29413 16542 ft 303 kts 229°
2026-05-06 20:13 30.69007 -94.31201 16136 ft 302 kts 229°
2026-05-06 20:13 30.67576 -94.32986 15737 ft 301 kts 228°
2026-05-06 20:13 30.66170 -94.34740 15345 ft 300 kts 228°
2026-05-06 20:13 30.64752 -94.36507 14955 ft 298 kts 228°
2026-05-06 20:14 30.63337 -94.38268 14564 ft 297 kts 227°
2026-05-06 20:14 30.61929 -94.40019 14181 ft 296 kts 227°
2026-05-06 20:14 30.60525 -94.41763 13795 ft 295 kts 227°
2026-05-06 20:14 30.59126 -94.43504 13411 ft 294 kts 227°
2026-05-06 20:15 30.57736 -94.45233 13030 ft 293 kts 227°
2026-05-06 20:15 30.56351 -94.46957 12651 ft 292 kts 227°
2026-05-06 20:15 30.54966 -94.48679 12331 ft 289 kts 226°
2026-05-06 20:15 30.53599 -94.50377 12028 ft 286 kts 226°
2026-05-06 20:16 30.52216 -94.52013 11791 ft 282 kts 225°
2026-05-06 20:16 30.50845 -94.53615 11563 ft 277 kts 225°
2026-05-06 20:16 30.49497 -94.55185 11339 ft 273 kts 225°
2026-05-06 20:16 30.48166 -94.56737 11121 ft 269 kts 225°
2026-05-06 20:17 30.46867 -94.58253 10907 ft 269 kts 225°
2026-05-06 20:17 30.45547 -94.59794 10688 ft 269 kts 224°
2026-05-06 20:17 30.44232 -94.61330 10469 ft 266 kts 224°
2026-05-06 20:17 30.42940 -94.62838 10253 ft 262 kts 224°
2026-05-06 20:18 30.41658 -94.64334 10041 ft 259 kts 224°
2026-05-06 20:18 30.40395 -94.65804 9833 ft 256 kts 224°
2026-05-06 20:18 30.39134 -94.67275 9627 ft 258 kts 224°
2026-05-06 20:18 30.37870 -94.68748 9416 ft 258 kts 224°
2026-05-06 20:19 30.36609 -94.70216 9207 ft 258 kts 224°
2026-05-06 20:19 30.35343 -94.71690 8998 ft 258 kts 224°
2026-05-06 20:19 30.34075 -94.73165 8785 ft 258 kts 224°
2026-05-06 20:19 30.32806 -94.74638 8574 ft 257 kts 224°
2026-05-06 20:20 30.31558 -94.76090 8367 ft 257 kts 224°
2026-05-06 20:20 30.30300 -94.77553 8160 ft 256 kts 224°
2026-05-06 20:20 30.29043 -94.79028 7954 ft 258 kts 224°
2026-05-06 20:20 30.27788 -94.80501 7743 ft 256 kts 224°
2026-05-06 20:21 30.26538 -94.81961 7533 ft 254 kts 224°
2026-05-06 20:21 30.25290 -94.83420 7327 ft 255 kts 224°
2026-05-06 20:21 30.24045 -94.84871 7121 ft 254 kts 223°
2026-05-06 20:21 30.22795 -94.86328 6914 ft 255 kts 223°
2026-05-06 20:22 30.21549 -94.87787 6704 ft 253 kts 223°
2026-05-06 20:22 30.20311 -94.89236 6497 ft 253 kts 224°
2026-05-06 20:22 30.19075 -94.90679 6294 ft 252 kts 223°
2026-05-06 20:22 30.17845 -94.92115 6089 ft 252 kts 223°
2026-05-06 20:23 30.16609 -94.93549 5883 ft 252 kts 223°
2026-05-06 20:23 30.15371 -94.94983 5676 ft 250 kts 223°
2026-05-06 20:23 30.14154 -94.96389 5473 ft 246 kts 223°
2026-05-06 20:23 30.12963 -94.97774 5273 ft 241 kts 223°
2026-05-06 20:24 30.11796 -94.99128 5078 ft 236 kts 223°
2026-05-06 20:24 30.10642 -95.00462 4886 ft 233 kts 223°
2026-05-06 20:24 30.09507 -95.01778 4693 ft 228 kts 223°
2026-05-06 20:24 30.08410 -95.03048 4514 ft 225 kts 223°
2026-05-06 20:25 30.07312 -95.04318 4332 ft 222 kts 223°
2026-05-06 20:25 30.06217 -95.05585 4150 ft 219 kts 223°
2026-05-06 20:25 30.05137 -95.06835 3972 ft 219 kts 223°
2026-05-06 20:25 30.04059 -95.08080 3795 ft 221 kts 223°
2026-05-06 20:26 30.02970 -95.09339 3614 ft 221 kts 223°
2026-05-06 20:26 30.01891 -95.10585 3440 ft 224 kts 223°
2026-05-06 20:26 30.00790 -95.11854 3250 ft 221 kts 223°
2026-05-06 20:26 29.99809 -95.13189 3047 ft 218 kts 240°
2026-05-06 20:27 29.99441 -95.14845 3008 ft 209 kts 258°
2026-05-06 20:27 29.99333 -95.16504 2801 ft 205 kts 264°
2026-05-06 20:27 29.99335 -95.18130 2524 ft 201 kts 267°
2026-05-06 20:27 29.99345 -95.19727 2243 ft 195 kts 266°
2026-05-06 20:28 29.99348 -95.21271 1983 ft 190 kts 266°
2026-05-06 20:28 29.99349 -95.22784 1737 ft 187 kts 266°
2026-05-06 20:28 29.99349 -95.24279 1490 ft 186 kts 266°
2026-05-06 20:28 29.99348 -95.25764 1244 ft 184 kts 267°
2026-05-06 20:29 29.99347 -95.27216 1008 ft 176 kts 267°
2026-05-06 20:29 29.99346 -95.28568 805 ft 168 kts 267°
2026-05-06 20:29 29.99345 -95.29892 563 ft 163 kts 267°
2026-05-06 20:29 29.99345 -95.31189 349 ft 160 kts 267°
2026-05-06 20:30 29.99344 -95.32466 140 ft 158 kts 267°
2026-05-06 20:30 29.99347 -95.34244 105 ft 54 kts 271°
2026-05-06 20:30 29.99344 -95.34537 105 ft 24 kts 267°
2026-05-06 20:31 29.99311 -95.34589 105 ft 5 kts 132°
2026-05-06 20:31 29.99286 -95.34538 105 ft 11 kts 118°
2026-05-06 20:31 29.99239 -95.34442 105 ft 17 kts 119°
2026-05-06 20:31 29.99168 -95.34321 105 ft 15 kts 149°
2026-05-06 20:32 29.99093 -95.34288 105 ft 11 kts 116°
2026-05-06 20:32 29.99088 -95.34193 105 ft 14 kts 90°
2026-05-06 20:32 29.99088 -95.34079 105 ft 11 kts 89°
2026-05-06 20:32 29.99085 -95.33985 105 ft 10 kts 116°
2026-05-06 20:33 29.99013 -95.33961 105 ft 13 kts 182°
2026-05-06 20:33 29.98918 -95.33961 105 ft 14 kts 180°
2026-05-06 20:33 29.98876 -95.33941 105 ft 8 kts 141°
2026-05-06 20:33 29.98832 -95.33918 105 ft 3 kts 182°
2026-05-06 20:34 29.98829 -95.33918 105 ft 0 kts 181°